Regional Weather Roundup
Issued by NWS

Home | Current Version | Previous Version | Text Only | Print | Product List | Glossary On
Versions: 1 2 3 4 5 6 7 8 9 10 11 12 13 14 15 16 17 18 19 20 21 22 23 24 25 26 27 28 29 30 31 32 33 34 35 36 37 38 39 40 41 42 43 44 45 46 47 48 49 50
878
ASUS43 KFSD 230002
RWRSD

WEATHER ROUNDUP FOR SOUTH DAKOTA
NATIONAL WEATHER SERVICE SIOUX FALLS SD
700 PM CDT TUE AUG 22 2017

NOTE: "FAIR" INDICATES FEW OR NO CLOUDS BELOW 12,000 FEET WITH NO
SIGNIFICANT WEATHER AND/OR OBSTRUCTIONS TO VISIBILITY.


SDZ001>005-009-010-012>017-230100-
NORTHWEST AND NORTH CENTRAL SOUTH DAKOTA

CITY           SKY/WX    TMP DP  RH WIND       PRES   REMARKS
BUFFALO          N/A     82  41  23 E15       30.05F
FAITH            N/A     80  47  31 E14       30.11F
MOBRIDGE       SUNNY     77  51  40 E5        30.11S
$$

SDZ012>016-024>037-041>051-057-063-072>074-230100-
SOUTHWEST AND SOUTH CENTRAL SOUTH DAKOTA

CITY           SKY/WX    TMP DP  RH WIND       PRES   REMARKS
RAPID CTY ARPT SUNNY     83  47  28 SE14      30.10F
PIERRE         SUNNY     78  46  32 E6        30.11F
CUSTER         MOSUNNY   74  48  39 CALM      30.24F
ELLSWORTH AFB  SUNNY     83  47  27 SE13      30.10F
PHILIP         SUNNY     85  44  23 SE9       30.08F
PINE RIDGE     SUNNY     82  48  30 SW10      30.14F
SPEARFISH      LGT RAIN  81  43  26 E12G17    30.15F
WINNER         FAIR      78  54  43 E6        30.15F
$$

SDZ004>011-016>023-039-040-230100-
NORTHEAST SOUTH DAKOTA

CITY           SKY/WX    TMP DP  RH WIND       PRES   REMARKS
ABERDEEN       SUNNY     76  44  32 NW12      30.11F
WATERTOWN      SUNNY     70  46  42 NW10      30.12F
BROOKINGS      SUNNY     70  50  49 NW7       30.13F
SISSETON         N/A     72  51  47 N9        30.09S
$$

SDZ017-020-022-023-036>040-048>070-230100-
SOUTHEAST SOUTH DAKOTA

CITY           SKY/WX    TMP DP  RH WIND       PRES   REMARKS
SIOUX FALLS    SUNNY     73  50  44 N8        30.13F
HURON          SUNNY     75  49  39 NE6       30.12F
CHAMBERLAIN    SUNNY     77  53  43 S3        30.14F
MITCHELL       SUNNY     76  51  41 NE5       30.13F
YANKTON        SUNNY     74  52  46 W7        30.14F
$$

ABBREVIATIONS USED IN REMARKS
   TC - TEMPERATURE IN CELSIUS
  WCI - WIND CHILL INDEX
   HX - HEAT INDEX
  VSB - VISIBILITY





USA.gov is the U.S. government's official web portal to all federal, state and local government web resources and services.